Location: Oberstdorf
(47.4188°N, 10.2969°E)
Time: 16:34:57
(UTC+01:00)

ISS - Pass Details

Date: 10 February 2018
Orbit: 402 x 407 km, 51.6° (Epoch: 25 February)

Event Time Altitude Azimuth Distance (km) Brightness Sun altitude
Rises 18:39:47 0° 293° (WNW) 2,321 1.1 -11.5°
Reaches altitude 10° 18:41:53 10° 290° (WNW) 1,459 0.0 -11.9°
Maximum altitude 18:45:07 58° 210° (SSW) 477 -3.3 -12.4°
Enters shadow 18:47:56 13° 132° (SE) 1,300 -1.6 -12.9°
